Regional Weather Roundup
Issued by NWS

Home | Current Version | Previous Version | Graphics & Text | Print | Product List | Glossary On
Versions: 1 2 3 4 5 6 7 8 9 10 11 12 13 14 15 16 17 18 19 20 21 22 23 24 25 26 27 28 29 30 31 32 33 34 35 36 37 38 39 40 41 42 43 44 45 46 47 48 49 50
000
ASUS45 KCYS 210710
RWRWY

WYOMING REGIONAL WEATHER ROUNDUP
NATIONAL WEATHER SERVICE CHEYENNE WY
1200 AM MST SUN DEC 21 2014

NOTE:  "FAIR" INDICATES FEW OR NO CLOUDS BELOW 12,000 FEET
WITH NO SIGNIFICANT WEATHER AND/OR OBSTRUCTIONS TO VISIBILITY.

WYZ001-210800-
YELLOWSTONE NATIONAL PARK

CITY           SKY/WX    TMP DP  RH WIND       PRES   REMARKS
LK YELLOWSTONE   N/A     27  23  85 CALM      29.83F
W YELLOWSTONE  NOT AVBL

$$
WYZ002>013-054>058-071-098>099-210800-
NORTHERN WYOMING

CITY           SKY/WX    TMP DP  RH WIND       PRES   REMARKS
JACKSON        MOCLDY    30  30 100 S14       29.87F WCI  20
CODY           MOCLDY    43  23  45 W14G22    29.71F
GREYBULL       FAIR      13  11  92 CALM      29.77F
WORLAND        FAIR      11   7  84 SW5       29.76F WCI   3
SHERIDAN       FAIR      24  17  74 CALM      29.69F
BUFFALO        FAIR      28  16  60 SW8       29.71F WCI  20
GILLETTE       FAIR      35  20  54 SW16      29.72F WCI  25
HULETT           N/A    N/A N/A N/A MISG        N/A
NEWCASTLE      FAIR      30  25  80 SE6       29.79F WCI  24

$$
WYZ014>020-022>026-101>103-210800-
CENTRAL WYOMING

CITY           SKY/WX    TMP DP  RH WIND       PRES   REMARKS
BIG PINEY      CLOUDY    22  19  89 CALM      29.94S
PINEDALE       CLOUDY    23  23 100 CALM      29.94F
DUBOIS         NOT AVBL
LANDER         FAIR      15  12  88 S3        29.80F FOG
RIVERTON       FAIR      13  11  92 CALM      29.82S
CASPER         FAIR      32  25  75 SW22G30   29.81S WCI  19
DOUGLAS        FAIR      30  23  75 N7        29.81F WCI  23

$$
WYZ021-027>030-104>119-210800-
SOUTHERN WYOMING

CITY           SKY/WX    TMP DP  RH WIND       PRES   REMARKS
EVANSTON       FLURRIES  31  28  89 SW20      29.98F WCI  19
KEMMERER       LGT SNOW  30  30 100 W21G28    29.94F WCI  17
FORT BRIDGER   FAIR      32  30  91 W20G30    29.98F WCI  20
ROCK SPRINGS   CLOUDY    31  27  85 SW17      29.97S WCI  19
DIXON          CLOUDY    31  28  86 SW13      30.03F WCI  22
RAWLINS        MOCLDY    28  23  81 VRB7      29.92S WCI  21
SARATOGA       CLOUDY    30  27  86 W5        29.96S WCI  25
LARAMIE        FAIR      27  19  72 W14       29.87F WCI  16
CHEYENNE       FAIR      32  19  58 SW9       29.87F WCI  24
TORRINGTON     FAIR     N/A N/A N/A SW8       29.84F
PINE BLUFFS    CLOUDY    36  23  60 SW6       29.90F WCI  31

$$


USA.gov is the U.S. government's official web portal to all federal, state and local government web resources and services.